Regional Weather Roundup
Issued by NWS Sterling, VA

Home | Current Version | Previous Version | Text Only | Print | Product List | Glossary On
Versions: 1 2 3 4 5 6 7 8 9 10 11 12 13 14 15 16 17 18 19 20 21 22 23 24 25 26 27 28 29 30 31 32 33 34 35 36 37 38 39 40 41 42 43 44 45 46 47 48 49 50
851
ASUS41 KLWX 240910
RWRLWX

REGIONAL WEATHER ROUNDUP
NATIONAL WEATHER SERVICE BALTIMORE MD/WASHINGTON DC
500 AM EDT TUE MAY 24 2016

Note: "FAIR" indicates few or no clouds below 12,000 feet
with no significant weather and/or obstructions to visibility.
 TC=TEMPERATURE CELSIUS

 * =Non NWS site. Station does not report precipitation (e.g. rain,
    snow, etc.), thunder, or fog.

DCZ001-MDZ009-015-VAZ040>042-051-053>054-241000-
WASHINGTON METRO

CITY           SKY/WX    TMP DP  RH WIND       PRES   REMARKS
WASHINGTON NAT MOCLDY    59  56  89 SW6       29.94S
DULLES         FAIR      55  53  93 CALM      29.95S
ANDREWS AFB    CLOUDY    59  56  89 W9        29.92F
FT BELVOIR     FAIR      55  54  94 CALM      29.95R FOG
QUANTICO       FAIR      58  56  93 CALM      29.96S
LEESBURG*      FAIR      57  55  94 W8        29.96S
MANASSAS*      FAIR      54  54 100 S3        29.96S

$$

MDZ006>007-011-014-241000-
BALTIMORE METRO

CITY           SKY/WX    TMP DP  RH WIND       PRES   REMARKS
BWI AIRPORT    CLOUDY    58  54  86 W9        29.91F
MD SCIENCE CTR   N/A     60  53  77 MISG      29.91S
MARTIN STATE   CLOUDY    57  55  94 CALM      29.92S
ANNAPOLIS      CLEAR     57  55  93 CALM      29.91S
FORT MEADE*    PTCLDY    55  54  94 W3        29.94S

$$

MDZ012-015-019>023-241000-
MARYLAND EASTERN SHORE

CITY           SKY/WX    TMP DP  RH WIND       PRES   REMARKS
OCEAN CITY     CLOUDY    57  54  89 NW3       29.91S
SALISBURY      CLOUDY    57  56  96 W7        29.92R
EASTON*        MOCLDY    58  58 100 CALM      29.95S FOG

$$

MDZ017>025-241000-
SOUTHERN MARYLAND

CITY           SKY/WX    TMP DP  RH WIND       PRES   REMARKS
PATUXENT RIVER CLOUDY    59  55  87 CALM      29.94S
ST INIGOES     LGT RAIN  59  57  93 SW6       29.94S
LEONARDTOWN*   CLOUDY    55  54  94 W3        29.95F

$$

MDZ003>005-241000-
NORTH CENTRAL MARYLAND

CITY           SKY/WX    TMP DP  RH WIND       PRES   REMARKS
FREDERICK*     PTCLDY    55  54  94 SW8       29.97R
HAGERSTOWN APT CLEAR     54  50  86 S5        29.96S
WESTMINSTER*   PTCLDY    55  48  76 SW3       29.93S

$$

MDZ501>502-241000-
WESTERN MARYLAND

CITY           SKY/WX    TMP DP  RH WIND       PRES   REMARKS
OAKLAND*       NOT AVBL
CUMBERLAND*    CLEAR     52  52 100 CALM      30.05R

$$

VAZ025>031-241000-
SHENANDOAH VALLEY

CITY           SKY/WX    TMP DP  RH WIND       PRES   REMARKS
WINCHESTER*    MOCLDY    52  50  93 CALM      29.98S FOG
FRONT ROYAL*   PTSUNNY   54  52  94 S5        29.98R
LURAY*         CLOUDY    54  54 100 CALM      30.01R
NEW MARKET*    CLOUDY    55  54  97 CALM      30.00R
STAUNTON*      CLOUDY   N/A N/A N/A CALM      30.05S
WAYNESBORO*    CLOUDY    52  50  95 CALM      30.03S

$$

WVZ021-048>050-054>055-241000-
EASTERN WEST VIRGINIA PANHANDLE

CITY           SKY/WX    TMP DP  RH WIND       PRES   REMARKS
MARTINSBURG    FOG       50  49  96 CALM      29.97S VSB 1/2
PETERSBURG*    FAIR      55  53  95 E5        30.04R

$$

VAZ036>039-050-241000-
CENTRAL FOOTHILLS

CITY           SKY/WX    TMP DP  RH WIND       PRES   REMARKS
CHARLOTTESVILL CLOUDY    56  52  86 S5        29.98R
CULPEPER*      FAIR      53  53 100 CALM      29.98S FOG
ORANGE*        FOG       52  52 100 CALM      29.99R VSB 1/2
GORDONSVILLE*  FAIR      53  53 100 S6        29.97R FOG
WARRENTON*     FAIR      54  49  86 CALM      29.96R HAZE

$$

VAZ055>057-241000-
NORTH AND CENTRAL PIEDMONT

CITY           SKY/WX    TMP DP  RH WIND       PRES   REMARKS
FREDERICKSBRG* MOCLDY    57  57 100 SW6       29.96S
STAFFORD*      FAIR      56  54  95 CALM      30.00S

$$

NCZ024-NYZ072-PAZ021-071-VAZ022-071-241000-
OTHER REGIONAL OBSERVATIONS

CITY           SKY/WX    TMP DP  RH WIND       PRES   REMARKS
NEW YORK CITY  LGT RAIN  58  56  93 W5        29.89F FOG
PHILADELPHIA   CLOUDY    58  54  86 E5        29.90R
PITTSBURGH     CLEAR     53  47  79 CALM      30.03R
ROANOKE        FAIR      53  50  89 NE3       30.06S
RICHMOND       MOCLDY    52  51  97 N5        29.98R
RALEIGH        PTCLDY    51  49  92 SW5       30.04R

$$

ANZ530>537-241000-
MARINE OBSERVATIONS

STATION/POSITION TIME  TEMP    WIND        PRES
                       AIR SEA DIR/SP/G
                 (UTC) (F)     (DEG/KT/KT) (MB)
THOMAS PT LIGHT  0900   60 61  250/  7/  8 1014.3S
BALT KEY BRIDGE  0800   60     240/  8/  8 1012.5F
COVE POINT       0800   58     270/  8/ 13 1013.8F
LEWISETTA        0800   58 63  290/  4/  6 1013.6F
SOLOMONS ISLAND  0800   59 62  260/  6/ 10   N/A
PINEY POINT      0800          280/  8/  9   N/A

$$





USA.gov is the U.S. government's official web portal to all federal, state and local government web resources and services.